Date String (YYYY-MM-DD hh:mm:ss) UTC,Instrument flags,Ambient pressure (hPa),Sample flow (lpm),Bypass flow (lpm),Sample temperature (°C),Ambient temperature (°C),ASC tube jacket temperature (°C),LED temperature (°C),Box temperature (°C),Sample RH (%),Span deviation,Mass concentration (μg/m³),Mass concentration (μg/m³),Mass concentration (μg/m³)
DateTimeUTC,F1_M11,P_M11,Q1_M11,Q2_M11,T1_M11,T2_M11,T3_M11,T4_M11,T5_M11,U1_M11,ZSPAN_M11,X0_M11,X2_M11,X1_M11
2022-03-16 03:00:00,,0823.6,5.02,0.00,28.8,28.1,00.0,37.8,30.6,05.3,0000.0,0001.92,0000.83,0000.51
2022-03-16 03:01:00,,0823.6,4.98,0.00,28.8,28.1,00.0,37.8,30.6,05.4,0000.0,0002.00,0000.85,0000.52
2022-03-16 03:02:00,,0823.6,5.01,0.00,28.8,28.1,00.0,37.8,30.6,05.3,0000.0,0002.14,0000.89,0000.51
2022-03-16 03:03:00,,0823.6,4.99,0.00,28.8,28.1,00.0,37.8,30.6,05.3,0000.0,0002.26,0000.92,0000.52
2022-03-16 03:04:00,,0823.6,4.99,0.00,28.8,28.1,00.0,37.8,30.6,05.4,0000.0,0002.21,0000.93,0000.53
2022-03-16 03:05:00,,0823.5,5.01,0.00,28.8,28.1,00.0,37.8,30.6,05.3,0000.0,0001.93,0000.91,0000.54
2022-03-16 03:06:00,,0823.6,4.99,0.00,28.8,28.0,00.0,37.8,30.5,05.2,0000.0,0003.00,0000.89,0000.53
2022-03-16 03:07:00,,0823.6,5.00,0.00,28.8,28.0,00.0,37.8,30.5,05.2,0000.0,0003.94,0000.85,0000.54
2022-03-16 03:08:00,,0823.7,5.00,0.00,28.8,28.0,00.0,37.8,30.5,05.2,0000.0,0003.93,0000.83,0000.54
2022-03-16 03:09:00,,0823.6,5.01,0.00,28.8,28.0,00.0,37.8,30.5,05.2,0000.0,0004.03,0000.83,0000.54
2022-03-16 03:10:00,,0823.6,5.01,0.00,28.7,28.0,00.0,37.7,30.4,05.2,0000.0,0004.07,0000.86,0000.54
2022-03-16 03:11:00,,0823.6,5.01,0.00,28.7,27.9,00.0,37.7,30.4,05.2,0000.0,0004.08,0000.87,0000.53
2022-03-16 03:12:00,,0823.6,4.99,0.00,28.7,27.9,00.0,37.7,30.4,05.2,0000.0,0004.02,0000.85,0000.53
2022-03-16 03:13:00,,0823.7,5.01,0.00,28.7,27.9,00.0,37.7,30.4,05.2,0000.0,0003.89,0000.81,0000.53
2022-03-16 03:14:00,,0823.7,5.00,0.00,28.7,27.9,00.0,37.7,30.4,05.2,0000.0,0003.73,0000.77,0000.53
2022-03-16 03:15:00,,0823.7,4.99,0.00,28.7,27.9,00.0,37.7,30.4,05.2,0000.0,0004.01,0000.79,0000.52
2022-03-16 03:16:00,,0823.7,5.00,0.00,28.7,27.9,00.0,37.7,30.5,05.3,0000.0,0004.21,0000.83,0000.52
2022-03-16 03:17:00,,0823.7,5.01,0.00,28.7,27.9,00.0,37.7,30.5,05.4,0000.0,0003.21,0000.87,0000.52
2022-03-16 03:18:00,,0823.6,4.99,0.00,28.7,28.0,00.0,37.7,30.5,05.3,0000.0,0002.04,0000.89,0000.52
2022-03-16 03:19:00,,0823.7,4.99,0.00,28.7,28.0,00.0,37.7,30.5,05.2,0000.0,0001.91,0000.87,0000.51
2022-03-16 03:20:00,,0823.7,5.02,0.00,28.7,28.0,00.0,37.7,30.5,05.1,0000.0,0001.81,0000.88,0000.51
2022-03-16 03:21:00,,0823.7,5.00,0.00,28.7,27.9,00.0,37.7,30.4,05.1,0000.0,0001.73,0000.85,0000.51
2022-03-16 03:22:00,,0823.8,4.99,0.00,28.7,27.9,00.0,37.7,30.4,05.1,0000.0,0001.71,0000.84,0000.51
2022-03-16 03:23:00,,0823.8,5.02,0.00,28.7,27.9,00.0,37.7,30.5,05.2,0000.0,0001.84,0000.86,0000.51
2022-03-16 03:24:00,,0823.8,4.99,0.00,28.7,28.0,00.0,37.7,30.5,05.3,0000.0,0001.93,0000.87,0000.51
2022-03-16 03:25:00,,0823.7,4.99,0.00,28.7,28.0,00.0,37.7,30.5,05.2,0000.0,0002.30,0000.88,0000.51
2022-03-16 03:26:00,,0823.7,5.00,0.00,28.7,28.0,00.0,37.7,30.5,05.2,0000.0,0002.09,0000.87,0000.51
2022-03-16 03:27:00,,0823.7,5.02,0.00,28.7,28.0,00.0,37.7,30.5,05.2,0000.0,0002.11,0000.87,0000.51
2022-03-16 03:28:00,,0823.7,4.99,0.00,28.8,28.0,00.0,37.7,30.5,05.2,0000.0,0002.60,0000.86,0000.51
2022-03-16 03:29:00,,0823.8,4.99,0.00,28.8,28.0,00.0,37.7,30.5,05.1,0000.0,0003.25,0000.92,0000.51
2022-03-16 03:30:00,,0823.8,5.00,0.00,28.8,28.0,00.0,37.7,30.5,05.2,0000.0,0003.98,0000.93,0000.52
2022-03-16 03:31:00,,0823.7,5.02,0.00,28.8,28.0,00.0,37.7,30.6,05.2,0000.0,0003.91,0000.89,0000.52
2022-03-16 03:32:00,,0823.8,4.98,0.00,28.8,28.0,00.0,37.7,30.6,05.2,0000.0,0004.09,0000.93,0000.52
2022-03-16 03:33:00,,0823.7,5.01,0.00,28.8,28.0,00.0,37.7,30.6,05.2,0000.0,0004.18,0000.98,0000.52
2022-03-16 03:34:00,,0823.7,4.99,0.00,28.8,28.0,00.0,37.7,30.6,05.3,0000.0,0004.02,0000.95,0000.51
2022-03-16 03:35:00,,0823.7,4.99,0.00,28.8,28.0,00.0,37.7,30.6,05.3,0000.0,0003.97,0000.95,0000.52
2022-03-16 03:36:00,,0823.7,5.01,0.00,28.8,28.0,00.0,37.7,30.5,05.5,0000.0,0003.68,0000.96,0000.52
2022-03-16 03:37:00,,0823.7,5.00,0.00,28.8,28.0,00.0,37.7,30.5,05.4,0000.0,0003.58,0000.92,0000.52
2022-03-16 03:38:00,,0823.7,5.00,0.00,28.8,28.1,00.0,37.7,30.6,05.4,0000.0,0003.50,0000.91,0000.52
2022-03-16 03:39:00,,0823.6,5.00,0.00,28.8,28.1,00.0,37.7,30.6,05.4,0000.0,0003.05,0000.93,0000.51
2022-03-16 03:40:00,,0823.7,5.00,0.00,28.8,28.1,00.0,37.7,30.5,05.4,0000.0,0002.53,0000.89,0000.52
2022-03-16 03:41:00,,0823.6,5.02,0.00,28.8,28.0,00.0,37.7,30.5,05.5,0000.0,0001.85,0000.91,0000.52
2022-03-16 03:42:00,,0823.6,4.99,0.00,28.8,28.0,00.0,37.7,30.5,05.6,0000.0,0001.91,0000.94,0000.53
2022-03-16 03:43:00,,0823.6,4.99,0.00,28.8,28.0,00.0,37.7,30.5,05.6,0000.0,0001.95,0000.95,0000.53
2022-03-16 03:44:00,,0823.6,5.02,0.00,28.8,28.0,00.0,37.7,30.5,05.6,0000.0,0002.53,0000.91,0000.54
2022-03-16 03:45:00,,0823.6,4.98,0.00,28.8,28.0,00.0,37.7,30.5,05.7,0000.0,0003.07,0000.93,0000.55
2022-03-16 03:46:00,,0823.5,5.01,0.00,28.8,28.0,00.0,37.7,30.5,05.7,0000.0,0003.10,0000.95,0000.56
2022-03-16 03:47:00,,0823.6,4.99,0.00,28.8,28.0,00.0,37.7,30.5,05.9,0000.0,0003.01,0000.92,0000.55
2022-03-16 03:48:00,,0823.4,5.01,0.00,28.8,28.0,00.0,37.7,30.5,06.0,0000.0,0003.03,0000.94,0000.55
2022-03-16 03:49:00,,0823.4,4.99,0.00,28.8,28.0,00.0,37.7,30.5,05.8,0000.0,0003.12,0000.95,0000.55
2022-03-16 03:50:00,,0823.4,5.01,0.00,28.8,28.0,00.0,37.7,30.5,05.8,0000.0,0002.99,0000.91,0000.55
2022-03-16 03:51:00,,0823.4,5.01,0.00,28.8,28.0,00.0,37.7,30.5,06.0,0000.0,0002.87,0000.88,0000.55
2022-03-16 03:52:00,,0823.5,4.99,0.00,28.8,28.0,00.0,37.7,30.4,06.1,0000.0,0003.05,0000.95,0000.55
2022-03-16 03:53:00,,0823.4,5.01,0.00,28.8,28.0,00.0,37.7,30.4,06.0,0000.0,0003.24,0000.95,0000.54
2022-03-16 03:54:00,,0823.5,5.00,0.00,28.8,28.0,00.0,37.7,30.4,06.0,0000.0,0003.27,0000.93,0000.54
2022-03-16 03:55:00,,0823.4,4.99,0.00,28.8,28.0,00.0,37.7,30.5,06.0,0000.0,0002.98,0000.98,0000.54
2022-03-16 03:56:00,,0823.4,5.02,0.00,28.8,28.0,00.0,37.7,30.4,06.1,0000.0,0002.43,0001.03,0000.54
2022-03-16 03:57:00,,0823.4,5.00,0.00,28.8,27.9,00.0,37.7,30.4,06.2,0000.0,0002.50,0001.06,0000.54
2022-03-16 03:58:00,,0823.5,4.99,0.00,28.8,27.9,00.0,37.7,30.4,06.1,0000.0,0002.57,0001.09,0000.55
2022-03-16 03:59:00,,0823.5,5.02,0.00,28.7,27.9,00.0,37.7,30.4,06.2,0000.0,0002.58,0001.11,0000.55
